Welcome to the New NWS' Forecast!
Most changes are behind the scenes, but click here for differences you might notice.

Terminal Aerodrome Forecast (TAF)

Issued by National Weather Service (NWS)

                            
923 
FTUS42 KKEY 150521
TAFMTH
TAF
KMTH 150521Z 1506/1606 10006KT P6SM FEW025 SCT250
     FM151500 12012KT P6SM VCTS SCT025CB SCT110 BKN150
     FM152100 12012KT P6SM VCSH SCT025 BKN150=